Location: *
(51.1248°S, 108.4023°W)
Time: 20:27:21
(UTC+00:00)

Cosmos 1937 Rocket - Pass Details

Date: 22 October 2021
Orbit: 746 x 781 km, 74.0° (Epoch: 03 December)

Event Time Altitude Azimuth Distance (km) Brightness Sun altitude
Rises 10:50:25 0° 353° (N) 3,267 6.4 -10.0°
Reaches altitude 10° 10:52:49 10° 357° (N) 2,347 5.7 -9.7°
Maximum altitude 10:58:01 54° 72° (ENE) 957 4.3 -9.0°
Drops below altitude 10° 11:03:16 10° 148° (SSE) 2,367 7.1 -8.3°
Sets 11:05:42 0° 152° (SSE) 3,298 7.9 -8.0°
